FW1398 Weather Reports


Display with metric or nautical units.
time (UTC)temp
F
wind
direction
speed
MPH
gust
MPH
rain 1hr
in
rain 24hr
in
rain mn
in
humidity
%
barometer
mb
20260502151824 81 87 3.0 5.0 0.00 0.00 0.00 25 1013.1
20260502151324 81 75 1.0 4.0 0.00 0.00 0.00 24 1013.2
20260502150823 80 30 2.0 4.0 0.00 0.00 0.00 24 1013.0
20260502150324 80 344 1.0 4.0 0.00 0.00 0.00 25 1013.1
20260502130319 68 59 1.0 3.0 0.00 0.00 0.00 33 1011.8
20260502123318 68 32 2.0 2.0 0.00 0.00 0.00 35 1011.3
20260502122819 67 31 0.0 1.0 0.00 0.00 0.00 37 1011.3
20260502122317 68 31 0.0 0.0 0.00 0.00 0.00 38 1011.2
20260502121813 68 75 0.0 0.0 0.00 0.00 0.00 32 1011.2
20260502121312 69 25 0.0 0.0 0.00 0.00 0.00 33 1011.1
20260502120813 69 25 0.0 1.0 0.00 0.00 0.00 33 1011.1
20260502120312 70 25 0.0 2.0 0.00 0.00 0.00 32 1011.1
20260502115812 71 25 1.0 2.0 0.00 0.00 0.00 30 1011.1
20260502115312 71 25 1.0 3.0 0.00 0.00 0.00 28 1011.1
20260502114813 72 3 2.0 3.0 0.00 0.00 0.00 28 1011.0
20260502114312 72 28 2.0 4.0 0.00 0.00 0.00 29 1011.0
20260502113812 71 25 2.0 4.0 0.00 0.00 0.00 29 1010.9
20260502113312 71 23 2.0 3.0 0.00 0.00 0.00 29 1010.9
20260502112812 72 62 2.0 3.0 0.00 0.00 0.00 28 1010.9
20260502112312 72 62 2.0 3.0 0.00 0.00 0.00 30 1010.9
20260502111813 73 51 1.0 3.0 0.00 0.00 0.00 28 1010.9
20260502111312 73 35 0.0 3.0 0.00 0.00 0.00 27 1010.9
20260502110811 73 8 2.0 4.0 0.00 0.00 0.00 28 1010.9
20260502110312 72 343 2.0 4.0 0.00 0.00 0.00 28 1010.9
20260502105809 72 357 3.0 4.0 0.00 0.00 0.00 29 1010.9
20260502105309 72 334 2.0 3.0 0.00 0.00 0.00 28 1010.9
20260502104807 72 338 1.0 3.0 0.00 0.00 0.00 28 1010.9
20260502104307 72 344 2.0 3.0 0.00 0.00 0.00 28 1010.8
20260502103806 73 0 2.0 4.0 0.00 0.00 0.00 28 1010.7
20260502103307 73 343 2.0 4.0 0.00 0.00 0.00 28 1010.7
20260502102807 72 348 2.0 4.0 0.00 0.00 0.00 28 1010.7
20260502102306 73 338 2.0 4.0 0.00 0.00 0.00 28 1010.5
20260502101805 73 337 2.0 4.0 0.00 0.00 0.00 28 1010.4
20260502101306 73 334 2.0 5.0 0.00 0.00 0.00 27 1010.4
20260502100805 74 334 2.0 7.0 0.00 0.00 0.00 27 1010.5
20260502100304 74 0 3.0 7.0 0.00 0.00 0.00 27 1010.5
20260502091302 75 345 3.0 9.0 0.00 0.00 0.00 26 1010.2
20260502090801 74 4 4.0 9.0 0.00 0.00 0.00 27 1010.2
20260502090301 73 3 3.0 6.0 0.00 0.00 0.00 28 1010.2
20260502071300 74 217 0.0 0.0 0.00 0.00 0.00 27 1009.5
20260502070801 74 217 0.0 1.0 0.00 0.00 0.00 26 1009.5
20260502070300 74 217 0.0 2.0 0.00 0.00 0.00 26 1009.5
20260502065801 75 217 0.0 3.0 0.00 0.00 0.00 28 1009.5
20260502065301 76 217 1.0 4.0 0.00 0.00 0.00 25 1009.5
20260502064801 76 158 2.0 4.0 0.00 0.00 0.00 25 1009.5
20260502064301 75 113 2.0 3.0 0.00 0.00 0.00 26 1009.5
20260502063801 76 313 2.0 4.0 0.00 0.00 0.00 25 1009.6
20260502063301 76 196 2.0 4.0 0.00 0.00 0.00 25 1009.5
20260502062801 75 152 1.0 3.0 0.00 0.00 0.00 26 1009.4
20260502062300 74 78 0.0 0.0 0.00 0.00 0.00 28 1009.4
20260502061800 74 59 0.0 0.0 0.00 0.00 0.00 28 1009.3
20260502061300 74 59 0.0 0.0 0.00 0.00 0.00 27 1009.2
20260502060800 75 157 0.0 0.0 0.00 0.00 0.00 28 1009.3
20260502060259 75 157 0.0 0.0 0.00 0.00 0.00 27 1009.2
20260502055759 76 157 0.0 0.0 0.00 0.00 0.00 27 1009.1
20260502055300 76 166 0.0 0.0 0.00 0.00 0.00 26 1009.1
20260502054800 76 166 0.0 0.0 0.00 0.00 0.00 26 1009.1
20260502054300 76 166 0.0 0.0 0.00 0.00 0.00 27 1009.1
20260502053759 76 157 0.0 0.0 0.00 0.00 0.00 29 1009.0
20260502053300 76 142 0.0 2.0 0.00 0.00 0.00 26 1009.1
20260502052759 76 142 1.0 2.0 0.00 0.00 0.00 28 1009.1
20260502052259 77 111 1.0 2.0 0.00 0.00 0.00 25 1009.1
20260502051800 77 97 1.0 2.0 0.00 0.00 0.00 29 1009.0
20260502051300 77 97 0.0 3.0 0.00 0.00 0.00 27 1008.9
20260502050759 78 94 1.0 3.0 0.00 0.00 0.00 24 1008.8
20260502050300 78 97 2.0 3.0 0.00 0.00 0.00 25 1008.8
20260502045800 79 117 1.0 2.0 0.00 0.00 0.00 24 1008.8
20260502045301 79 117 2.0 2.0 0.00 0.00 0.00 24 1008.8
20260502044805 79 121 1.0 2.0 0.00 0.00 0.00 23 1008.8
20260502044258 80 117 1.0 2.0 0.00 0.00 0.00 23 1008.7
20260502043758 79 124 1.0 2.0 0.00 0.00 0.00 24 1008.8
20260502043302 80 144 1.0 2.0 0.00 0.00 0.00 22 1008.7
20260502042800 81 144 1.0 2.0 0.00 0.00 0.00 21 1008.7
20260502042257 81 141 2.0 3.0 0.00 0.00 0.00 21 1008.6
20260502041756 81 140 1.0 3.0 0.00 0.00 0.00 21 1008.6
20260502041256 81 142 2.0 3.0 0.00 0.00 0.00 22 1008.7
20260502040756 81 111 1.0 2.0 0.00 0.00 0.00 22 1008.6
20260502040256 81 121 1.0 3.0 0.00 0.00 0.00 22 1008.5
20260502035756 82 123 1.0 3.0 0.00 0.00 0.00 21 1008.4
20260502035256 82 111 1.0 3.0 0.00 0.00 0.00 21 1008.4
20260502034756 82 111 1.0 2.0 0.00 0.00 0.00 21 1008.4
20260502034256 82 123 1.0 3.0 0.00 0.00 0.00 21 1008.3
20260502033755 83 104 1.0 3.0 0.00 0.00 0.00 20 1008.3
20260502033256 83 138 1.0 3.0 0.00 0.00 0.00 20 1008.2
20260502032756 84 138 1.0 4.0 0.00 0.00 0.00 19 1008.2
20260502032256 84 162 2.0 4.0 0.00 0.00 0.00 19 1008.1
20260502031755 84 145 2.0 4.0 0.00 0.00 0.00 19 1008.1
20260502031256 84 168 1.0 4.0 0.00 0.00 0.00 19 1008.0
20260502030755 85 152 2.0 5.0 0.00 0.00 0.00 19 1008.0
20260502030255 85 151 3.0 5.0 0.00 0.00 0.00 19 1007.8
20260502025755 85 140 3.0 5.0 0.00 0.00 0.00 19 1007.8
20260502025255 85 154 3.0 5.0 0.00 0.00 0.00 19 1007.6
20260502024755 85 182 3.0 5.0 0.00 0.00 0.00 19 1007.6
20260502024254 85 175 2.0 4.0 0.00 0.00 0.00 19 1007.6
20260502023754 85 168 2.0 5.0 0.00 0.00 0.00 19 1007.6
20260502023254 86 172 2.0 5.0 0.00 0.00 0.00 19 1007.5
20260502022754 86 179 3.0 6.0 0.00 0.00 0.00 19 1007.4
20260502022253 86 166 3.0 6.0 0.00 0.00 0.00 19 1007.3
20260502021754 87 179 3.0 7.0 0.00 0.00 0.00 19 1007.2
20260502021254 87 216 4.0 7.0 0.00 0.00 0.00 19 1007.4
20260502020752 87 159 3.0 10.0 0.00 0.00 0.00 19 1007.2
20260502020253 87 179 5.0 10.0 0.00 0.00 0.00 19 1007.2
20260502015753 87 210 4.0 7.0 0.00 0.00 0.00 18 1007.1
20260502015252 87 131 4.0 7.0 0.00 0.00 0.00 19 1007.1
20260502014753 87 162 3.0 7.0 0.00 0.00 0.00 19 1007.0
20260502014253 88 206 2.0 5.0 0.00 0.00 0.00 19 1007.1
20260502013752 88 200 2.0 5.0 0.00 0.00 0.00 19 1007.1
20260502013251 88 210 2.0 6.0 0.00 0.00 0.00 19 1007.1
20260502012751 88 221 3.0 6.0 0.00 0.00 0.00 19 1007.1
20260502012252 88 193 4.0 10.0 0.00 0.00 0.00 19 1007.1
20260502011752 89 224 3.0 10.0 0.00 0.00 0.00 19 1007.1
20260502011252 89 237 3.0 6.0 0.00 0.00 0.00 18 1007.1
20260502010752 89 261 1.0 7.0 0.00 0.00 0.00 18 1007.1
20260502010252 89 216 4.0 7.0 0.00 0.00 0.00 16 1007.2
20260502005752 89 203 3.0 5.0 0.00 0.00 0.00 18 1007.2
20260502005250 89 192 3.0 6.0 0.00 0.00 0.00 19 1007.2
20260502004751 89 271 3.0 11.0 0.00 0.00 0.00 19 1007.2
20260502004251 89 219 3.0 11.0 0.00 0.00 0.00 19 1007.3
20260502003750 89 290 4.0 10.0 0.00 0.00 0.00 19 1007.3
20260502003252 89 275 5.0 11.0 0.00 0.00 0.00 19 1007.3
20260502002750 89 247 5.0 11.0 0.00 0.00 0.00 19 1007.3
20260502002249 90 240 5.0 7.0 0.00 0.00 0.00 20 1007.4
20260502001749 89 275 3.0 11.0 0.00 0.00 0.00 21 1007.3
20260502001246 90 231 4.0 11.0 0.00 0.00 0.00 19 1007.4
20260502000747 89 279 2.0 6.0 0.00 0.00 0.00 20 1007.3
20260502000248 89 252 3.0 9.0 0.00 0.00 0.00 21 1007.3
20260501235747 89 176 4.0 9.0 0.00 0.00 0.00 20 1007.5
20260501235247 89 233 4.0 9.0 0.00 0.00 0.00 20 1007.5
20260501234747 89 271 2.0 11.0 0.00 0.00 0.00 21 1007.6
20260501234245 89 268 6.0 11.0 0.00 0.00 0.00 20 1007.5
20260501233745 90 272 4.0 11.0 0.00 0.00 0.00 20 1007.5
20260501233245 89 217 3.0 7.0 0.00 0.00 0.00 21 1007.5
20260501232746 89 219 3.0 9.0 0.00 0.00 0.00 21 1007.5
20260501232245 89 274 3.0 9.0 0.00 0.00 0.00 21 1007.6
20260501231746 89 212 4.0 9.0 0.00 0.00 0.00 22 1007.5
20260501231245 89 248 4.0 11.0 0.00 0.00 0.00 21 1007.6
20260501230745 89 192 5.0 11.0 0.00 0.00 0.00 22 1007.6
20260501230245 88 79 3.0 11.0 0.00 0.00 0.00 22 1007.6
20260501225745 88 286 6.0 11.0 0.00 0.00 0.00 22 1007.8
20260501225244 89 250 4.0 10.0 0.00 0.00 0.00 21 1007.8
20260501224744 89 234 6.0 10.0 0.00 0.00 0.00 21 1007.9
20260501224243 90 282 4.0 9.0 0.00 0.00 0.00 21 1008.0
20260501223743 89 282 4.0 10.0 0.00 0.00 0.00 21 1008.1
20260501223241 89 220 6.0 10.0 0.00 0.00 0.00 20 1008.2
20260501222740 88 286 4.0 9.0 0.00 0.00 0.00 20 1008.2
20260501222240 88 0 1.0 11.0 0.00 0.00 0.00 21 1008.3
20260501221740 89 262 5.0 14.0 0.00 0.00 0.00 20 1008.4
20260501221238 89 149 4.0 14.0 0.00 0.00 0.00 20 1008.4
20260501220739 89 133 3.0 11.0 0.00 0.00 0.00 20 1008.5
20260501220238 88 178 2.0 10.0 0.00 0.00 0.00 19 1008.6
20260501215738 89 149 3.0 10.0 0.00 0.00 0.00 19 1008.6
20260501215238 87 303 2.0 7.0 0.00 0.00 0.00 20 1008.7
20260501214737 87 213 4.0 7.0 0.00 0.00 0.00 21 1008.9
20260501214239 87 138 4.0 7.0 0.00 0.00 0.00 22 1008.9
20260501213738 87 219 2.0 9.0 0.00 0.00 0.00 22 1008.9
20260501213237 87 220 5.0 9.0 0.00 0.00 0.00 23 1009.0
20260501212738 87 245 4.0 12.0 0.00 0.00 0.00 23 1009.1
20260501212238 87 193 6.0 12.0 0.00 0.00 0.00 23 1009.2
20260501211737 87 172 3.0 10.0 0.00 0.00 0.00 23 1009.3
20260501211237 86 196 4.0 9.0 0.00 0.00 0.00 24 1009.4
20260501210736 86 152 3.0 9.0 0.00 0.00 0.00 23 1009.3
20260501210236 86 220 2.0 10.0 0.00 0.00 0.00 23 1009.4
20260501205736 86 221 6.0 10.0 0.00 0.00 0.00 23 1009.5
20260501205235 86 292 4.0 6.0 0.00 0.00 0.00 23 1009.5
20260501204735 85 307 2.0 7.0 0.00 0.00 0.00 23 1009.6
20260501204235 86 247 3.0 10.0 0.00 0.00 0.00 23 1009.7
20260501203735 85 171 5.0 10.0 0.00 0.00 0.00 24 1009.7
20260501203236 85 131 3.0 13.0 0.00 0.00 0.00 24 1009.7
20260501202735 86 182 4.0 13.0 0.00 0.00 0.00 24 1009.9
20260501202235 85 221 4.0 11.0 0.00 0.00 0.00 26 1009.9
20260501201735 85 243 7.0 12.0 0.00 0.00 0.00 25 1009.8
20260501201234 85 235 5.0 12.0 0.00 0.00 0.00 26 1009.9
20260501200734 85 289 2.0 9.0 0.00 0.00 0.00 25 1009.9
20260501200234 85 235 5.0 12.0 0.00 0.00 0.00 26 1010.1
20260501195735 85 268 7.0 12.0 0.00 0.00 0.00 25 1010.1
20260501195234 85 183 5.0 12.0 0.00 0.00 0.00 26 1010.2
20260501194734 85 316 4.0 7.0 0.00 0.00 0.00 26 1010.2
20260501194234 84 189 2.0 9.0 0.00 0.00 0.00 27 1010.2
20260501193733 84 276 4.0 9.0 0.00 0.00 0.00 26 1010.4
20260501193233 85 300 4.0 7.0 0.00 0.00 0.00 26 1010.4
20260501192731 83 131 0.0 9.0 0.00 0.00 0.00 27 1010.4
20260501192232 84 220 5.0 9.0 0.00 0.00 0.00 26 1010.7
20260501191732 85 158 3.0 11.0 0.00 0.00 0.00 26 1010.7
20260501191233 83 176 4.0 11.0 0.00 0.00 0.00 27 1010.8
20260501190733 83 127 4.0 11.0 0.00 0.00 0.00 27 1010.9
20260501190234 84 286 6.0 11.0 0.00 0.00 0.00 27 1010.8
20260501185732 84 345 4.0 6.0 0.00 0.00 0.00 28 1010.8
20260501185231 82 276 3.0 7.0 0.00 0.00 0.00 30 1011.0
20260501184732 82 243 4.0 7.0 0.00 0.00 0.00 29 1011.1
20260501184231 82 155 4.0 6.0 0.00 0.00 0.00 31 1011.1
20260501183732 81 125 2.0 6.0 0.00 0.00 0.00 30 1011.2
20260501183232 81 180 1.0 6.0 0.00 0.00 0.00 31 1011.2
20260501182732 81 197 3.0 9.0 0.00 0.00 0.00 31 1011.4
20260501182231 82 197 5.0 9.0 0.00 0.00 0.00 30 1011.5
20260501181730 81 221 5.0 9.0 0.00 0.00 0.00 31 1011.5
20260501181232 81 272 2.0 7.0 0.00 0.00 0.00 31 1011.6
20260501180730 80 245 1.0 6.0 0.00 0.00 0.00 31 1011.7
20260501180230 81 228 3.0 7.0 0.00 0.00 0.00 30 1011.7
20260501175730 81 158 4.0 7.0 0.00 0.00 0.00 31 1011.7
20260501175230 80 152 4.0 7.0 0.00 0.00 0.00 32 1011.7
20260501174730 80 175 1.0 5.0 0.00 0.00 0.00 33 1011.8
20260501174231 80 142 3.0 9.0 0.00 0.00 0.00 32 1011.9
20260501173729 80 310 3.0 9.0 0.00 0.00 0.00 32 1011.9
20260501173229 80 165 1.0 9.0 0.00 0.00 0.00 33 1011.9
20260501172729 79 176 3.0 9.0 0.00 0.00 0.00 33 1011.9
20260501172229 80 142 3.0 6.0 0.00 0.00 0.00 33 1011.9
20260501171729 79 254 0.0 4.0 0.00 0.00 0.00 33 1012.0
20260501171229 79 343 2.0 5.0 0.00 0.00 0.00 33 1011.9
20260501170729 79 213 3.0 6.0 0.00 0.00 0.00 34 1012.0
20260501170229 79 161 3.0 6.0 0.00 0.00 0.00 34 1011.9
20260501165729 79 241 2.0 6.0 0.00 0.00 0.00 33 1011.9
20260501165228 79 228 2.0 5.0 0.00 0.00 0.00 34 1011.9
20260501164730 78 302 2.0 6.0 0.00 0.00 0.00 34 1011.8
20260501164229 78 168 2.0 6.0 0.00 0.00 0.00 35 1011.9
20260501163729 78 203 2.0 6.0 0.00 0.00 0.00 35 1012.0
20260501163229 77 212 2.0 6.0 0.00 0.00 0.00 35 1012.0
20260501162728 77 220 1.0 7.0 0.00 0.00 0.00 36 1011.9
20260501162229 77 224 4.0 7.0 0.00 0.00 0.00 36 1012.0
20260501161729 76 290 2.0 9.0 0.00 0.00 0.00 36 1011.9
20260501161229 76 217 2.0 9.0 0.00 0.00 0.00 36 1012.0
20260501160729 76 295 3.0 10.0 0.00 0.00 0.00 37 1011.9
20260501160229 76 197 5.0 10.0 0.00 0.00 0.00 37 1011.8
20260501155729 76 221 5.0 7.0 0.00 0.00 0.00 36 1011.9
20260501155228 76 250 2.0 9.0 0.00 0.00 0.00 37 1011.8
20260501154728 75 259 5.0 9.0 0.00 0.00 0.00 37 1011.7
20260501154228 76 244 5.0 7.0 0.00 0.00 0.00 36 1011.7
20260501153730 76 279 3.0 10.0 0.00 0.00 0.00 37 1011.7
20260501153231 75 265 4.0 10.0 0.00 0.00 0.00 37 1011.7
20260501152731 75 230 2.0 5.0 0.00 0.00 0.00 37 1011.6
20260501152229 75 254 2.0 5.0 0.00 0.00 0.00 38 1011.6